Wind_Speed
42 42 42 42 42 41 42 42 43 44 45 47 50 52 54 56 58 58 58 57 55 53 52 51 51 51 51 49 47 44 42 41 41 39 38 37 36 35 33 31 29 26 24
43 43 44 43 42 42 42 43 44 45 47 48 50 52 54 57 59 61 63 62 61 59 57 56 55 54 54 52 51 49 46 44 43 43 41 39 39 38 37 34 31 29 27
45 45 45 44 42 42 43 44 45 46 48 49 51 53 55 57 60 62 65 66 65 64 62 60 59 58 56 56 54 53 51 49 46 45 44 42 41 40 39 36 34 32 29
45 45 45 43 42 43 44 45 46 48 49 50 51 53 55 57 58 60 63 65 66 65 64 63 62 61 59 58 58 57 54 53 51 48 47 46 43 42 41 39 37 34 31
45 45 45 43 43 43 44 46 47 48 49 51 51 52 53 54 54 55 57 59 61 62 62 61 61 62 61 60 60 60 58 55 54 51 49 49 47 44 42 41 39 37 34
47 46 45 44 43 43 45 46 48 49 50 51 50 50 49 48 48 48 49 52 54 55 55 55 57 59 61 61 61 60 60 58 57 54 50 49 48 46 44 43 42 41 37
48 47 45 44 43 44 46 47 48 49 49 49 48 47 45 44 44 43 43 44 46 48 49 50 52 55 57 59 61 61 61 60 58 55 53 49 48 47 47 45 45 43 40
49 47 45 44 43 45 46 48 49 48 47 47 45 43 41 40 39 38 37 37 38 41 44 44 47 49 52 53 56 59 60 59 59 56 53 50 48 46 45 46 46 45 42
49 47 44 43 43 44 46 47 47 46 45 44 42 40 39 37 36 34 31 30 32 36 39 40 42 44 45 47 49 53 56 58 58 58 54 53 49 46 45 45 45 44 43
48 45 43 43 43 44 46 46 45 44 43 42 40 39 36 34 30 26 23 22 26 31 35 37 38 39 42 44 45 46 49 52 55 56 55 53 52 49 45 44 44 44 44
47 44 42 43 43 44 44 44 43 42 41 40 38 36 33 29 24 19 15 17 20 26 31 34 36 37 39 40 42 43 45 47 50 53 54 53 51 50 48 44 43 43 43
46 43 42 42 43 43 43 42 40 39 38 38 37 34 30 24 18 13 11 13 19 24 27 30 33 34 36 37 39 41 42 44 46 49 51 52 52 51 49 47 45 44 42
45 43 41 42 42 42 41 40 39 37 37 36 35 31 25 19 14 9 8 11 18 23 26 28 30 32 33 34 36 38 39 40 42 45 48 49 50 50 49 48 46 45 42
44 42 41 41 41 41 40 38 36 35 35 34 32 28 22 16 11 5 7 12 18 22 25 28 29 30 31 32 33 35 36 38 39 42 45 48 49 51 50 49 46 44 42
44 41 41 41 40 39 38 36 34 33 32 32 30 26 20 13 7 3 6 12 19 22 25 26 27 27 29 29 31 32 34 35 37 39 43 46 49 51 50 48 47 44 43
43 41 40 40 40 38 36 34 33 31 30 30 28 24 19 11 4 2 8 13 18 21 22 23 24 25 26 27 28 30 31 33 35 38 41 44 47 49 50 49 48 45 43
43 40 39 39 39 37 36 33 31 29 28 27 26 22 18 10 2 3 8 13 18 20 21 22 23 23 24 24 25 27 28 29 32 36 39 43 46 49 49 48 45 42 39
42 39 38 38 37 36 34 32 30 28 26 25 23 20 17 10 4 3 8 13 17 19 21 22 23 24 24 23 24 24 25 26 29 33 38 42 46 48 48 47 44 42 38
41 38 37 37 36 35 33 31 28 26 24 23 21 18 15 10 4 3 8 12 15 17 20 21 22 23 22 22 23 23 24 25 27 31 35 40 45 48 48 46 44 41 39
40 38 36 35 35 34 32 30 27 24 22 21 19 17 13 9 4 2 6 11 14 17 19 21 22 22 22 22 22 23 24 25 26 29 33 38 44 47 47 46 45 42 39
39 36 35 34 33 33 32 30 26 23 21 19 17 16 13 9 5 1 4 8 13 16 19 20 21 22 22 22 22 23 24 24 25 28 31 36 43 47 47 46 45 42 41
38 35 33 32 32 32 31 29 26 24 21 18 16 14 12 9 6 2 2 6 10 14 17 19 21 21 22 22 22 23 24 25 26 28 30 35 42 46 48 47 46 44 42
36 34 31 30 30 30 30 29 26 23 21 18 17 14 11 8 6 3 1 4 7 11 14 16 19 21 21 22 23 24 25 25 26 28 31 35 40 43 46 46 46 45 42
35 32 30 28 28 27 27 27 25 23 21 19 17 15 12 9 7 6 4 3 6 8 11 14 17 18 20 22 24 25 25 26 27 28 30 34 39 42 43 44 43 42 40
33 30 27 26 26 25 25 25 24 22 21 19 17 16 15 12 10 8 6 4 5 6 8 11 14 16 18 20 22 24 25 26 26 27 30 34 38 41 42 43 41 40 38
31 28 25 23 23 23 23 23 22 20 20 19 18 18 17 15 12 9 7 5 3 5 7 9 12 14 16 18 21 22 24 25 25 28 32 36 38 40 40 40 39 38 36
Wind_Direction
314 312 311 308 305 302 299 297 295 292 290 287 283 280 278 276 274 271 267 264 261 258 255 251 247 244 242 242 241 240 235 231 228 225 223 221 219 217 215 214 214 215 216
316 314 313 310 306 303 301 299 297 295 293 290 286 283 280 277 274 270 267 264 260 256 253 250 247 243 241 239 239 239 236 232 229 226 224 223 221 218 216 215 214 215 217
317 316 314 311 307 305 303 302 300 298 295 293 290 287 284 280 276 272 268 264 260 256 252 248 245 242 239 237 237 236 236 233 230 227 224 223 222 220 217 215 214 216 217
318 317 315 312 309 307 306 305 304 302 299 297 295 291 287 283 279 274 268 263 259 254 251 246 242 240 238 236 234 234 234 233 231 229 225 223 222 221 218 216 215 216 218
320 319 316 314 311 310 310 310 309 306 305 303 300 296 291 286 281 275 268 262 257 253 250 245 241 237 235 234 233 232 231 231 230 229 226 224 223 221 220 217 216 217 218
323 321 319 316 314 314 314 314 313 311 309 307 304 300 295 289 284 277 270 262 255 250 246 242 237 234 232 231 230 230 230 229 229 228 227 225 223 222 221 219 216 216 218
325 324 321 319 317 317 317 318 316 315 313 311 308 304 298 293 287 281 273 263 253 245 240 236 233 230 228 228 229 229 228 228 228 228 227 226 224 221 221 220 217 216 217
327 325 323 321 320 320 320 321 320 319 317 315 312 308 304 298 292 285 275 262 250 239 233 229 226 224 224 224 226 227 227 227 226 226 226 226 225 221 220 220 218 216 216
329 327 325 323 323 323 323 323 323 322 321 319 317 314 309 304 298 289 276 260 242 231 225 221 217 218 217 219 222 225 225 225 225 224 223 225 225 224 220 219 218 216 216
330 328 326 326 326 326 326 326 325 325 325 324 322 319 315 309 303 293 275 252 232 221 215 212 209 210 211 213 216 220 222 223 223 222 221 221 223 223 222 220 219 217 216
332 330 329 329 329 328 328 328 328 328 328 328 327 324 320 315 309 297 270 237 219 209 205 202 203 205 207 209 211 214 217 218 219 219 218 218 217 221 222 220 219 219 217
334 333 332 332 331 331 331 331 331 331 331 332 331 329 325 319 314 298 261 225 208 200 197 195 197 200 205 207 208 210 212 214 215 216 216 216 216 219 222 222 221 220 218
337 335 335 334 334 334 335 335 334 335 335 335 335 334 331 325 317 296 244 209 195 190 189 188 190 196 201 203 204 205 208 210 212 212 212 213 213 215 217 219 220 220 219
339 337 337 337 337 337 338 338 338 338 340 341 341 340 337 333 324 293 216 193 184 183 184 185 188 193 196 199 201 203 205 207 208 209 209 210 210 211 214 218 221 221 221
341 340 340 340 340 340 341 341 341 342 344 346 347 347 344 338 328 269 196 186 182 181 180 183 186 189 193 195 198 200 202 204 205 207 207 208 209 211 213 216 218 221 221
343 342 342 343 344 344 344 343 344 345 347 349 351 353 352 347 332 214 180 177 178 178 177 179 183 186 189 192 196 198 199 201 202 204 204 205 207 209 211 212 215 218 219
344 343 344 345 347 347 347 346 346 347 349 352 355 358 1 2 6 181 178 179 180 180 179 180 181 184 185 188 191 194 195 196 197 198 200 202 203 204 207 209 212 215 217
345 345 345 347 349 350 350 349 349 349 351 353 357 2 8 16 38 154 176 180 182 185 184 184 185 185 187 188 190 191 191 193 195 196 197 198 200 201 203 205 209 213 214
346 346 346 348 350 351 351 351 350 351 352 354 358 2 8 17 40 138 173 182 187 189 189 189 190 191 193 195 195 193 192 193 194 196 196 197 198 198 199 201 204 206 209
346 346 347 349 352 353 353 353 351 351 351 354 358 2 6 15 35 124 176 187 191 192 193 194 195 198 200 202 201 199 197 196 196 196 196 197 196 196 197 199 200 200 202
346 347 347 349 352 354 355 355 354 352 352 353 356 2 7 14 24 76 188 193 196 196 198 200 203 205 207 208 207 204 200 199 199 198 197 196 195 194 194 194 194 196 199
346 347 347 349 351 354 356 356 356 354 353 355 356 359 2 8 16 26 189 195 198 203 206 208 209 210 212 212 209 205 202 200 200 198 197 196 194 193 193 194 195 196 198
344 346 347 348 350 353 356 357 359 359 358 356 357 358 358 357 359 355 289 216 208 209 210 211 212 212 211 209 207 205 203 202 201 200 200 196 193 192 193 193 195 196 198
343 345 346 347 350 354 357 358 360 1 3 3 4 5 4 0 353 341 315 266 228 217 212 210 211 212 212 211 210 207 206 204 202 204 203 198 193 191 190 191 192 194 197
340 343 344 345 348 354 358 359 1 4 5 6 8 9 7 5 358 350 338 307 256 232 220 213 209 208 207 206 204 204 206 205 205 205 201 193 189 188 187 187 190 192 194
337 339 341 342 345 352 358 1 3 5 7 10 11 11 13 12 6 359 354 342 289 238 222 215 211 206 201 198 198 198 198 198 198 196 191 186 184 182 183 185 188 191 192
Height
5739 5732 5726 5720 5715 5709 5705 5701 5697 5694 5691 5687 5684 5681 5678 5676 5675 5675 5676 5679 5682 5687 5691 5696 5701 5707 5713 5719 5725 5732 5739 5745 5751 5757 5762 5768 5773 5779 5784 5789 5795 5799 5804
5728 5722 5715 5709 5703 5698 5694 5689 5685 5680 5676 5672 5668 5664 5660 5657 5655 5654 5654 5657 5661 5666 5672 5678 5684 5691 5698 5705 5712 5719 5726 5733 5741 5747 5753 5759 5764 5770 5776 5782 5788 5793 5797
5718 5711 5704 5698 5692 5687 5682 5676 5671 5666 5661 5655 5650 5645 5641 5637 5634 5632 5631 5633 5637 5643 5650 5658 5666 5673 5681 5689 5697 5705 5713 5721 5729 5736 5743 5749 5755 5761 5767 5774 5780 5786 5791
5708 5701 5694 5687 5681 5675 5669 5663 5657 5650 5644 5638 5632 5625 5620 5615 5611 5608 5606 5607 5612 5618 5626 5635 5645 5654 5663 5672 5681 5690 5699 5708 5716 5724 5732 5739 5746 5752 5759 5766 5773 5779 5784
5699 5691 5683 5676 5669 5663 5656 5649 5642 5634 5627 5620 5612 5605 5598 5592 5588 5584 5583 5583 5587 5594 5602 5612 5623 5633 5644 5654 5664 5674 5684 5694 5703 5712 5721 5729 5736 5743 5751 5757 5765 5771 5777
5688 5680 5672 5665 5658 5651 5643 5636 5628 5619 5611 5602 5594 5586 5578 5572 5567 5563 5561 5562 5566 5572 5580 5590 5601 5612 5624 5636 5647 5658 5669 5679 5690 5700 5710 5718 5726 5734 5741 5748 5756 5763 5769
5678 5670 5662 5654 5647 5639 5631 5623 5614 5605 5596 5586 5577 5569 5561 5555 5549 5545 5542 5543 5547 5553 5562 5572 5582 5593 5606 5619 5631 5642 5654 5665 5676 5687 5698 5707 5716 5724 5731 5739 5747 5755 5762
5669 5660 5652 5644 5636 5628 5620 5611 5601 5591 5582 5572 5563 5554 5546 5539 5533 5529 5526 5526 5530 5537 5546 5557 5567 5579 5591 5604 5615 5627 5639 5651 5664 5675 5687 5696 5704 5712 5721 5729 5737 5746 5754
5660 5651 5643 5635 5627 5618 5609 5600 5589 5580 5570 5560 5550 5541 5533 5526 5520 5515 5512 5513 5517 5524 5533 5544 5555 5567 5579 5591 5603 5614 5626 5637 5648 5661 5673 5684 5694 5702 5711 5719 5728 5737 5745
5652 5643 5635 5626 5618 5609 5600 5590 5580 5569 5560 5550 5541 5531 5523 5515 5509 5504 5502 5503 5508 5515 5524 5534 5545 5557 5568 5579 5590 5601 5612 5624 5636 5649 5661 5673 5683 5693 5701 5710 5719 5728 5736
5645 5636 5627 5619 5610 5601 5591 5581 5571 5561 5552 5542 5533 5523 5515 5507 5502 5498 5496 5498 5503 5509 5518 5528 5538 5548 5559 5570 5581 5591 5601 5612 5624 5637 5649 5661 5672 5683 5693 5701 5710 5719 5728
5639 5629 5621 5612 5603 5593 5584 5574 5564 5555 5545 5536 5526 5517 5509 5502 5498 5495 5494 5496 5500 5507 5515 5524 5533 5543 5553 5562 5573 5582 5592 5603 5614 5627 5639 5651 5663 5674 5683 5693 5702 5710 5719
5632 5623 5614 5606 5596 5586 5577 5567 5558 5549 5540 5531 5522 5513 5505 5500 5496 5494 5494 5496 5500 5506 5514 5522 5530 5539 5548 5557 5566 5576 5585 5595 5606 5618 5630 5642 5653 5664 5674 5684 5693 5701 5710
5627 5618 5609 5600 5591 5581 5572 5562 5554 5545 5537 5528 5519 5511 5504 5499 5496 5495 5495 5498 5502 5507 5514 5521 5529 5537 5545 5553 5562 5570 5579 5589 5599 5609 5620 5632 5643 5654 5664 5675 5685 5693 5702
5622 5613 5604 5595 5586 5577 5567 5559 5550 5543 5535 5527 5518 5510 5504 5500 5497 5497 5498 5500 5504 5509 5515 5522 5529 5536 5543 5551 5559 5567 5575 5583 5592 5602 5612 5623 5634 5645 5656 5666 5676 5686 5695
5618 5609 5600 5592 5582 5573 5564 5556 5548 5541 5534 5526 5519 5511 5505 5501 5499 5499 5500 5503 5507 5512 5518 5524 5530 5536 5543 5550 5557 5564 5571 5578 5586 5595 5604 5615 5625 5636 5647 5658 5668 5678 5687
5615 5606 5597 5589 5580 5571 5562 5554 5547 5540 5533 5527 5520 5514 5508 5504 5502 5502 5503 5506 5510 5514 5520 5525 5531 5537 5543 5549 5555 5561 5567 5573 5580 5588 5597 5607 5617 5628 5639 5649 5659 5670 5679
5612 5603 5595 5586 5578 5569 5561 5553 5546 5540 5534 5528 5522 5517 5512 5508 5506 5505 5506 5509 5512 5517 5521 5526 5532 5537 5542 5548 5553 5559 5564 5570 5576 5583 5591 5600 5610 5620 5631 5642 5652 5662 5672
5610 5601 5593 5585 5577 5568 5560 5553 5546 5540 5534 5529 5524 5519 5515 5512 5510 5509 5510 5512 5515 5519 5523 5527 5532 5537 5542 5547 5552 5557 5562 5567 5573 5579 5586 5594 5604 5614 5624 5635 5645 5655 5665
5607 5599 5592 5584 5576 5568 5560 5553 5546 5541 5535 5530 5526 5522 5518 5515 5513 5513 5513 5515 5517 5520 5524 5528 5532 5536 5541 5546 5550 5554 5559 5565 5570 5576 5582 5589 5598 5608 5619 5629 5639 5649 5658
5606 5598 5591 5583 5576 5568 5560 5553 5547 5541 5536 5531 5527 5524 5520 5517 5516 5515 5515 5516 5518 5521 5524 5527 5531 5535 5539 5543 5548 5552 5557 5562 5567 5573 5579 5586 5594 5603 5613 5623 5632 5643 5652
5605 5597 5590 5583 5576 5568 5561 5554 5548 5542 5537 5532 5528 5525 5522 5520 5518 5517 5516 5517 5518 5520 5523 5526 5529 5532 5537 5541 5545 5550 5554 5559 5565 5570 5576 5582 5590 5598 5608 5618 5627 5637 5646
5603 5595 5589 5582 5576 5569 5562 5556 5549 5544 5538 5534 5530 5526 5523 5521 5519 5518 5517 5517 5518 5519 5521 5524 5526 5530 5534 5538 5542 5547 5552 5557 5562 5567 5572 5579 5586 5595 5604 5613 5623 5633 5642
5600 5594 5588 5582 5576 5569 5563 5557 5551 5545 5540 5535 5531 5527 5524 5522 5520 5518 5517 5517 5517 5518 5519 5521 5523 5526 5530 5534 5539 5543 5548 5553 5559 5564 5569 5576 5584 5592 5601 5611 5620 5630 5638
5598 5592 5587 5581 5576 5570 5564 5558 5553 5547 5542 5538 5533 5529 5526 5523 5521 5519 5517 5516 5516 5516 5517 5518 5520 5523 5526 5530 5534 5539 5544 5550 5555 5561 5567 5574 5582 5591 5600 5609 5618 5626 5634
5595 5590 5585 5580 5576 5571 5566 5560 5555 5550 5545 5540 5536 5532 5528 5525 5522 5519 5517 5515 5514 5514 5514 5515 5517 5520 5523 5526 5531 5536 5541 5547 5552 5559 5566 5573 5581 5591 5599 5608 5616 5623 5631